星链-35283(STARLINK-35283)

导读

STARLINK-35283是美国SpaceX星链星座的卫星,于2025年11月15日发射,属于星链第二代低轨卫星,该卫星主要服务全球高速互联网接入,为地面偏远地区、移动载体等提供低成本网络覆盖,延续星链星座的组网部署节奏,强化星座低轨通信网络的覆盖密度与服务稳定性。

Basic Information
目录编号:
66478
目录名称:
STARLINK-35283
国际标识:
2025-262Y
轨道中心:
EARTH
卫星名称:
星链-35283
卫星全名:
星链-35283(STARLINK-35283)
卫星状态:
在轨 (已飞行293 天)
发射日期:
2025-11-15 UTC
国别 :
美国 (US)
星等 :
--
Orbit Information
数据来源 国际轨道数据
星历时间: 2026-09-04T01:42:38+0800
16小时前
查看轨道信息
半长轴: 6861.154km
偏心率: 0.0002062
轨道倾角: 43.005°
近地点辐角 283.295°
升交点赤经 10.896°
平近点角 76.768°
近地点: 481.602km
远地点: 484.432km
周期: 94.266分钟
每日圈数: 15.275909
Detailed Information
固有亮度:
5
最大亮度:
2.5
卫星平台:
Starlink V1.0
覆盖范围:
全球
运营商:
太空探索技术公司
运营商所在国:
美国
制造商(研发单位):
太空探索技术公司
制造商所在国:
美国
使用方式:
暂无
Satellite Introduction
Starlink 计划是 SpaceX 推出的全球卫星互联网项目,通过发射低轨道卫星,为全球尤其是偏远地区提供高速、低延迟的互联网服务。自 2019 年起,Starlink 已部署数千颗卫星,旨在缩小全球数字鸿沟,推动互联网普及。该项目还为军事、航空等行业提供通信支持,带来广泛经济效益。
2D Orbit Map
3D Orbit Map
Orbit Altitude Analysis Chart
Orbit Inclination Analysis Chart
Orbit Comprehensive Analysis Chart
View Comprehensive Chart
Conjunction Data List
Event ID Objects TCA Miss Dist (km) Collision Risk Probability Collision Risk Index (CRI) Action
CDM_260906-092805-653806-647821
2026-09-06T
09:28:51+0000
0.267 km
中距离
4.58691E-4 高风险 0.88
CDM_260906-024505-946806-647821
2026-09-06T
02:45:38+0000
1.060 km
极远距离
1.38755E-5 中风险 0.58
CDM_260906-041905-946806-647821
2026-09-06T
04:19:47+0000
1.197 km
极远距离
9.095551E-6 低风险 0.54
CDM_260903-030405-765506-647822
2026-09-03T
03:04:36+0000
1.344 km
极远距离
9.055858E-6 低风险 0.54
CDM_260906-110305-653806-647821
2026-09-06T
11:03:00+0000
1.423 km
极远距离
5.193605E-6 低风险 0.49
CDM_260906-002105-740006-647821
2026-09-06T
00:21:36+0000
1.866 km
极远距离
2.571906E-6 低风险 0.43
CDM_260906-075405-653806-647821
2026-09-06T
07:54:42+0000
1.911 km
极远距离
2.16131E-6 低风险 0.42
CDM_260906-011105-946806-647821
2026-09-06T
01:11:29+0000
2.310 km
极远距离
1.372362E-6 低风险 0.38
CDM_260906-055305-946806-647821
2026-09-06T
05:53:57+0000
2.561 km
极远距离
1.140969E-6 低风险 0.36